[[{"header":{"parameterUnit":"m.s-1","parameterCategory":1,"la1":30.2991,"la2":30.254,"lo1":-89.0895,"lo2":-89.0444,"dy":0.0017,"dx":0.0017,"nx":28,"ny":28,"refTime":"2025-07-26T03:00:00:Z","depth":0,"parameterNumber":2,"parameterNumberName":"U-component_of_WINDS"},"data":[0,0,0,0,0,0,0,0,0,0,0,0,0,0,0,0,0,0,0,0,0,0,0,0,0,0,0,0,0,0,0,0,0,0,0,0,0,0,0,0,0,0,0,0,0,0,0,0,0,0,0,0,0,0,0,0,0,0,0.182,0.182,0,0.181,0.181,0.181,0.1787,0.1786,0.1786,0.1785,0.1774,0.1775,0.1775,0,0,0,0,0,0,0,0,0,0,0,0,0,0.1821,0.1821,0.182,0.182,0.182,0.181,0.181,0.181,0.1787,0.1786,0.1786,0.1785,0.1774,0.1775,0.1775,0,0,0,0,0,0,0,0,0,0,0,0,0,0.1816,0.1821,0.182,0.1808,0.1806,0.181,0.181,0.181,0.1787,0.1786,0.1785,0.1785,0.1774,0.1775,0.1775,0.179,0,0,0.1775,0.1776,0,0,0,0,0,0,0,0,0.1817,0.1816,0.181,0.1808,0.1807,0.1799,0.1806,0.1803,0.1787,0.1794,0.1785,0.1784,0.1783,0.1783,0.1782,0.179,0.1789,0.1776,0.1776,0.1776,0.1776,0,0,0,0,0,0,0,0.1817,0.1817,0.1816,0.1809,0.1808,0.1802,0.1801,0.1805,0.1793,0.1794,0.1792,0.1791,0.1782,0.1782,0.1782,0.1789,0.1776,0.1776,0.1776,0.1776,0.181,0.181,0,0,0,0,0,0,0.1819,0.1817,0.1817,0.1816,0.181,0.1803,0.1801,0.1802,0.1793,0.1791,0.1792,0.179,0.1782,0.1782,0.1781,0.1799,0.1776,0.1776,0.1776,0.1809,0.181,0.1811,0,0,0,0,0,0,0.1819,0.1819,0.1817,0.1816,0.1815,0.1804,0.1805,0.1802,0.1802,0.1791,0.1789,0.1794,0.1781,0.1781,0.1788,0.1798,0.1776,0.1776,0.1808,0.1809,0.181,0.1835,0,0,0,0,0,0,0.1819,0.182,0.1825,0.1816,0.1816,0.1824,0.1805,0.1803,0.1803,0.18,0.1792,0.179,0.1781,0.1788,0.1789,0.1798,0.1776,0.1807,0.1809,0.181,0.1833,0.1837,0.184,0,0,0,0,0,0.1819,0.1832,0.1826,0.1826,0.1822,0.1825,0.1824,0.1813,0.1803,0.1809,0.1802,0.1791,0.1797,0.1789,0.1789,0.1799,0.1806,0.1808,0.181,0.1832,0.1836,0.184,0,0,0,0,0,0,0.1842,0.1831,0.1823,0.1834,0.1831,0.1821,0.1828,0.1818,0.1817,0.1815,0.1801,0.18,0.1809,0.1805,0.1796,0.1814,0.18,0.1802,0.1816,0.1821,0.1824,0.1824,0.1777,0,0,0,0,0,0.1849,0.1852,0.1842,0.1852,0.1851,0.184,0.184,0.1832,0.1828,0.1826,0.182,0.1817,0.1818,0.1819,0.182,0.1833,0.1831,0.184,0.1843,0.1846,0.1847,0.1854,0.1858,0.1816,0.1816,0.1816,0,0,0.1862,0.1856,0.1858,0.1856,0.1853,0.1856,0.1839,0.1843,0.1845,0.1827,0.1834,0.1829,0.1824,0.1835,0.1839,0.1831,0.1859,0.1848,0.185,0.185,0.1856,0.186,0.1864,0.1817,0.1817,0.1817,0,0,0.1887,0.1883,0.1891,0.1888,0.1883,0.1876,0.1878,0.187,0.1866,0.1873,0.1859,0.1862,0.1865,0.1862,0.1861,0.1886,0.1876,0.1887,0.1904,0.1911,0.1914,0.1917,0.1926,0.193,0.1889,0.1889,0.1889,0,0.1904,0.1908,0.1896,0.1902,0.1901,0.1885,0.1894,0.1891,0.1887,0.1887,0.1879,0.1882,0.1878,0.1887,0.1894,0.1893,0.1895,0.1888,0.1915,0.1918,0.192,0.1929,0.1932,0.189,0.189,0.189,0.189,0,0.1929,0.1933,0.194,0.1936,0.1937,0.1943,0.1933,0.1935,0.1927,0.192,0.1928,0.1922,0.1921,0.1923,0.1915,0.1932,0.1927,0.1917,0.1903,0.1926,0.1933,0.1937,0.1892,0.1892,0.1891,0.1891,0,0,0.1968,0.1958,0.1961,0.1959,0.1953,0.1955,0.1962,0.1961,0.1963,0.1961,0.1966,0.1969,0.196,0.1959,0.1951,0.1957,0.1977,0.1946,0.1946,0.1952,0.1996,0.2003,0.2007,0.1971,0.1971,0.1972,0.1996,0,0.1991,0.2001,0.1991,0.2004,0.2007,0.1992,0.1998,0.1995,0.1989,0.1991,0.1985,0.1988,0.1975,0.1975,0.198,0.1974,0.1986,0.1972,0.1975,0.1975,0.1976,0.2011,0.2018,0.2042,0.1999,0.1999,0.2,0,0.202,0.2019,0.2032,0.2025,0.2026,0.2032,0.2031,0.2033,0.2029,0.2025,0.2024,0.2015,0.2021,0.2007,0.2015,0.2006,0.2006,0.2004,0.2004,0.2004,0.1989,0.2011,0.2049,0.2052,0.2004,0.2004,0.2004,0,0.2047,0.2049,0.2057,0.2056,0.2049,0.2053,0.205,0.2046,0.2046,0.2046,0.2046,0.2046,0.2046,0.2046,0.2037,0.2028,0.2047,0.2032,0.2043,0.2043,0.2047,0.2047,0.2085,0.2048,0.2048,0.2048,0.2048,0,0.2074,0.2082,0.2069,0.2074,0.2083,0.2072,0.2081,0.2077,0.2073,0.2077,0.2064,0.2068,0.2056,0.2059,0.2051,0.2059,0.2059,0.2056,0.2054,0.2057,0.2057,0.2057,0.2055,0.2049,0.2049,0.2049,0.2049,0,0.2105,0.2097,0.2104,0.2097,0.2095,0.2102,0.2096,0.2101,0.2095,0.21,0.21,0.2091,0.2094,0.2084,0.2085,0.2081,0.2092,0.2088,0.2094,0.2092,0.2104,0.2103,0.2143,0.2147,0.2108,0.2108,0.2109,0,0.2123,0.2129,0.2123,0.2124,0.2122,0.2125,0.2126,0.2115,0.2117,0.2113,0.2118,0.212,0.212,0.2125,0.2119,0.212,0.2115,0.2129,0.2115,0.2118,0.2115,0.2114,0.2115,0.2131,0.2132,0.2132,0.2133,0,0.2155,0.2151,0.2152,0.2153,0.2154,0.2154,0.2152,0.2155,0.2143,0.2145,0.2148,0.2149,0.215,0.2152,0.2151,0.2149,0.2139,0.2137,0.214,0.2143,0.2146,0.2144,0.2101,0.2136,0.2136,0.2136,0.2135,0.2135,0.218,0.2185,0.2181,0.2183,0.2182,0.2181,0.2185,0.218,0.2182,0.2182,0.2176,0.218,0.2177,0.2175,0.2173,0.2176,0.217,0.2174,0.2174,0.2175,0.2177,0.2146,0.2176,0.2176,0.2176,0.2176,0.2176,0,0.2211,0.2209,0.2211,0.221,0.2212,0.2203,0.2201,0.2203,0.2207,0.2205,0.2206,0.221,0.2212,0.2205,0.2206,0.221,0.2206,0.2211,0.221,0.221,0.2183,0.2181,0.2214,0.2214,0.2214,0.2214,0.2214,0.2214,0.2228,0.2236,0.2231,0.2238,0.2235,0.2239,0.2239,0.2239,0.2237,0.2241,0.2243,0.2239,0.2235,0.2236,0.2238,0.2236,0.2237,0.2243,0.224,0.2215,0.2211,0.2208,0.2206,0.2244,0.2244,0.2266,0.2266,0.2267]},{"header":{"parameterUnit":"m.s-1","parameterCategory":1,"la1":30.2991,"la2":30.254,"lo1":-89.0895,"lo2":-89.0444,"dy":0.0017,"dx":0.0017,"nx":28,"ny":28,"refTime":"2025-07-26T03:00:00:Z","depth":0,"parameterNumber":3,"parameterNumberName":"V-component_of_WINDS"},"data":[0,0,0,0,0,0,0,0,0,0,0,0,0,0,0,0,0,0,0,0,0,0,0,0,0,0,0,0,0,0,0,0,0,0,0,0,0,0,0,0,0,0,0,0,0,0,0,0,0,0,0,0,0,0,0,0,0,0,0.1828,0.1827,0,0.1761,0.176,0.176,0.173,0.173,0.173,0.173,0.1659,0.1658,0.1656,0,0,0,0,0,0,0,0,0,0,0,0,0,0.1927,0.1925,0.1828,0.1827,0.1826,0.1761,0.176,0.1759,0.173,0.173,0.173,0.173,0.166,0.1658,0.1655,0,0,0,0,0,0,0,0,0,0,0,0,0,0.1874,0.1925,0.1828,0.1803,0.1801,0.1761,0.176,0.1759,0.173,0.173,0.173,0.173,0.1661,0.1658,0.1655,0.1634,0,0,0.1646,0.1645,0,0,0,0,0,0,0,0,0.1878,0.1871,0.1808,0.1805,0.1802,0.1754,0.1769,0.1717,0.173,0.1757,0.173,0.173,0.1691,0.1685,0.1672,0.1631,0.1628,0.1646,0.1644,0.1643,0.1642,0,0,0,0,0,0,0,0.1881,0.1874,0.1801,0.1807,0.1803,0.1795,0.1788,0.1759,0.1724,0.1754,0.1752,0.1745,0.1689,0.1675,0.1671,0.1627,0.1646,0.1643,0.1642,0.164,0.1565,0.1565,0,0,0,0,0,0,0.1889,0.1877,0.1803,0.1799,0.1841,0.1793,0.1785,0.1769,0.1724,0.1717,0.1744,0.1743,0.168,0.1674,0.1668,0.1641,0.1643,0.164,0.1638,0.1566,0.1565,0.1565,0,0,0,0,0,0,0.1891,0.1883,0.1806,0.1837,0.1827,0.1791,0.1774,0.1768,0.1754,0.1717,0.171,0.1737,0.168,0.1672,0.1643,0.1638,0.1639,0.1636,0.1566,0.1566,0.1565,0.1586,0,0,0,0,0,0,0.1894,0.1884,0.1876,0.1837,0.1825,0.1783,0.1773,0.1766,0.1749,0.1747,0.1708,0.1702,0.168,0.1648,0.164,0.1634,0.1634,0.1566,0.1566,0.1565,0.1586,0.1586,0.1587,0,0,0,0,0,0.1898,0.1884,0.1876,0.1867,0.1815,0.1783,0.1776,0.1752,0.1749,0.1741,0.1717,0.1703,0.164,0.1645,0.1636,0.1629,0.1566,0.1566,0.1565,0.1585,0.1586,0.1587,0,0,0,0,0,0,0.1922,0.1879,0.1869,0.1842,0.1817,0.1778,0.1766,0.1753,0.1727,0.1726,0.1697,0.1688,0.1662,0.1642,0.1649,0.1606,0.1602,0.16,0.162,0.1621,0.1621,0.1626,0.1631,0,0,0,0,0,0.1924,0.1903,0.1865,0.1845,0.1833,0.1802,0.1787,0.1771,0.1743,0.1731,0.1705,0.1678,0.1652,0.1635,0.1609,0.1583,0.1574,0.1574,0.1574,0.1575,0.1573,0.1558,0.1557,0.1563,0.1563,0.1563,0,0,0.1929,0.1902,0.189,0.185,0.1828,0.1805,0.1793,0.177,0.1752,0.1727,0.1699,0.1679,0.1646,0.1619,0.1605,0.1602,0.157,0.1574,0.1575,0.1573,0.1557,0.1557,0.1556,0.1563,0.1563,0.1563,0,0,0.1925,0.1903,0.1884,0.1862,0.183,0.1809,0.1805,0.1768,0.1754,0.1725,0.1706,0.1685,0.1641,0.1618,0.1601,0.159,0.1576,0.1582,0.1586,0.1571,0.1571,0.157,0.1566,0.1564,0.1581,0.1581,0.1581,0,0.1934,0.19,0.1875,0.1853,0.1836,0.1813,0.1793,0.1774,0.1734,0.1722,0.1719,0.1664,0.164,0.1607,0.1604,0.1591,0.1585,0.1586,0.1573,0.1572,0.1571,0.1566,0.1565,0.1582,0.1581,0.1581,0.1581,0,0.1913,0.1889,0.1878,0.1841,0.1822,0.1801,0.1773,0.1757,0.1742,0.1722,0.1693,0.1664,0.1632,0.1623,0.1608,0.1588,0.1587,0.1579,0.1573,0.1572,0.1567,0.1565,0.1583,0.1583,0.1582,0.1582,0,0,0.1921,0.1872,0.1868,0.1851,0.1814,0.1795,0.1773,0.1742,0.1729,0.1702,0.1683,0.1646,0.1639,0.162,0.1602,0.1589,0.1582,0.1583,0.1582,0.1583,0.1557,0.1563,0.1562,0.1573,0.1573,0.1572,0.156,0,0.1912,0.1872,0.185,0.1819,0.1797,0.1776,0.1756,0.1731,0.1712,0.169,0.1668,0.1643,0.1635,0.1623,0.161,0.1586,0.1576,0.1586,0.1554,0.1553,0.1562,0.1559,0.1565,0.1555,0.1558,0.1558,0.1557,0,0.1896,0.1871,0.1838,0.1804,0.1793,0.1777,0.1747,0.1726,0.1697,0.1684,0.1663,0.1646,0.1621,0.1618,0.1584,0.1591,0.1576,0.1563,0.1562,0.1557,0.1555,0.1554,0.1551,0.155,0.1554,0.1555,0.1555,0,0.1905,0.1863,0.1838,0.1824,0.1784,0.1772,0.1755,0.1726,0.1709,0.1683,0.1671,0.1642,0.1626,0.1604,0.1579,0.158,0.1547,0.1542,0.1535,0.1536,0.1529,0.1529,0.1523,0.152,0.152,0.152,0.152,0,0.1897,0.1878,0.1842,0.1826,0.1804,0.1779,0.1757,0.1737,0.1712,0.1692,0.1672,0.1653,0.1622,0.1599,0.158,0.1554,0.1547,0.1535,0.153,0.1537,0.1538,0.1526,0.1526,0.152,0.152,0.152,0.152,0,0.1903,0.1879,0.185,0.1814,0.1805,0.179,0.1759,0.1743,0.1723,0.1697,0.169,0.1658,0.1631,0.1604,0.1567,0.1554,0.1528,0.1522,0.1538,0.1536,0.153,0.153,0.1515,0.1511,0.1512,0.1512,0.1512,0,0.1899,0.1884,0.1847,0.1833,0.1816,0.1793,0.1775,0.175,0.1733,0.1699,0.1687,0.1658,0.1633,0.1591,0.1564,0.1535,0.1528,0.1524,0.1523,0.153,0.1527,0.1528,0.1526,0.1525,0.1525,0.1525,0.1525,0,0.1895,0.1884,0.186,0.1833,0.1813,0.179,0.1766,0.1755,0.1725,0.1706,0.1678,0.166,0.1622,0.1594,0.1563,0.1544,0.1529,0.1526,0.1522,0.1529,0.1539,0.1533,0.154,0.1526,0.1526,0.1526,0.1526,0.1526,0.1896,0.1881,0.1853,0.1828,0.1807,0.1785,0.1769,0.1747,0.1723,0.1691,0.1678,0.1649,0.1621,0.1577,0.1559,0.1536,0.1532,0.1528,0.1526,0.1525,0.1527,0.1543,0.153,0.153,0.153,0.153,0.153,0,0.189,0.1871,0.1848,0.1815,0.1795,0.1785,0.1758,0.1741,0.1717,0.1692,0.1669,0.1637,0.1609,0.1581,0.1551,0.1539,0.1531,0.1532,0.1532,0.1528,0.1532,0.1537,0.1538,0.1538,0.1538,0.1538,0.1538,0.1538,0.1885,0.186,0.1845,0.181,0.179,0.1763,0.1749,0.1728,0.1708,0.1674,0.1651,0.1633,0.1606,0.1575,0.1549,0.1541,0.1531,0.1534,0.1524,0.1528,0.1528,0.1527,0.1532,0.1532,0.1532,0.1522,0.1522,0.1522]}]]